COSMOS 1275 DEB, 12719

Orbit data source: Space-Track

COSMOS 1275 DEB, 12719 is space debris in LEO originally from a launch on Thu, 04 Jun 1981 UTC launched from the Plesetsk Missile And Space Complex (PKMTR). Debris objects in space refer to the collection of defunct objects orbiting the Earth. Examples of debris include non-operational satellites, rocket bodies, and fragments generated from explosions, collisions, or faulty payload assembly.

Loading next visibility...
Identifier
12719, 1981-053BL
Orbit
LEO
Country
Flag of CISCIS
Related business
Manufacturer
Unknown
Mission
Spacecraft
Bus & Motor
Unknown
Mass
Unknown
Launch date (UTC)
1981-06-04 (45 years ago)
Launch vehicle
Unknown
Launch site
Plesetsk Missile And Space Complex (PKMTR)
Object type
Payload
Rocket body
Debris
Shape & HBR
Unknown shape, 0.2 m
Radar Cross Section
Medium (>0.1 m² and <1 m²)

Expand to show TLE details & history
Last TLE update: 17 hours ago

TLE from 17 hours ago
0 COSMOS 1275 DEB
1 12719U 81053BL  26254.74217322  .00000472  00000-0  34043-3 0  9994
2 12719  82.9622 334.2171 0023891 100.6781  22.2153 13.94665534281639
Epoch: 2026-09-11T17:48Z
TLE epoch observation values (Epoch: 2026-09-11T17:48:43.766Z)
Latitude
56.44151°
Longitude
-114.39512°
Altitude
905.638 km
Speed
7.413 km/s
True Right ascension
09h 34m 11s
True Declination
56° 17' 10"
Sunlit
Object was in daylight at epoch
Visualization orbit readout
Latitude
Unknown
Longitude
Unknown
Altitude
Unknown
Speed
Unknown
Apparent Right ascension
Unknown
Apparent Declination
Unknown
Sunlit
N/A
Visualization observer readout
Local Sidereal Time
02:57:38
Azimuth
Unknown
Elevation
Unknown
Doppler factor
Unknown
Orbital elements
Apogee altitude
926.858 km
Perigee altitude
892.036 km
Semi-major axis
7,287.584 km
Eccentricity
0.00239
Inclination
82.9622°
RAAN
334.2171°
Arg. of periapsis
100.6781°
True anomaly
22.3191°
Mean anomaly
22.2153°
Eccentric anomaly
22.26717°
Mean motion
3.48873 °/min
Orbital period
103.19 mins
BSTAR
0.00034043
Loading maneuver chart data...
Computing Atmospheric mass density...
Loading historical data...
Loading historical data...
Loading historical data...
Loading historical data...
Loading historical data...
Loading historical data...
Loading historical data...

Documentation

Showing up to 5 results
|